Regional Weather Roundup
Issued by NWS Newport/Morehead, NC

Current Version | Previous Version | Graphics & Text | Print | Product List | Glossary Off
Versions: 1 2 3 4 5 6 7 8 9 10 11 12 13 14 15 16 17 18 19 20 21 22 23 24 25 26 27 28 29 30 31 32 33 34 35 36 37 38 39 40 41 42 43 44 45 46 47 48 49 50

000
ASUS42 KMHX 212010
RWRMHX
WEATHER ROUNDUP FOR EASTERN NORTH CAROLINA
NATIONAL WEATHER SERVICE NEWPORT/MOREHEAD CITY NC
400 PM EDT SUN SEP 21 2014

NOTE: "FAIR" INDICATES FEW OR NO CLOUDS BELOW 12,000 FEET
WITH NO SIGNIFICANT WEATHER AND/OR OBSTRUCTIONS TO VISIBILITY

NCZ015>017-031-032-045>047-102-103-212100-
NORTH COAST

CITY           SKY/WX    TMP DP  RH WIND       PRES   REMARKS
EDENTON        MOSUNNY   80  64  58 W6        29.76S
ELIZABETH CITY PTSUNNY   79  67  66 W9        29.74S
KITTY HAWK     CLOUDY    76  69  78 NW6       29.73S
MANTEO         CLOUDY    77  70  77 W8        29.75S

$$

NCZ045>047-081-094-103-104-212100-
CENTRAL COAST

CITY           SKY/WX    TMP DP  RH WIND       PRES   REMARKS
FRISCO         PTSUNNY   76  70  82 NW14G21   29.76R
SWANQUARTER      N/A     81 N/A N/A W13G21    29.74S

$$

NCZ095-097-098-100-101-212100-
SOUTHERN COAST

CITY           SKY/WX    TMP DP  RH WIND       PRES   REMARKS
BEAUFORT       MOSUNNY   83  62  49 NW10      29.80S
CEDAR ISLAND     N/A     79 N/A N/A NW9       29.82S
JACKSONVILLE   MOSUNNY   82  63  52 W7        29.81S
NEWPORT        NOT AVBL
PINEY ISLAND   CLEAR     82  65  56 W13       29.79R
WILMINGTON     MOSUNNY   85  61  44 W12       29.83S


$$

NCZ011>013-027>030-043-044-078>080-089-090>093-098-212100-
COASTAL PLAIN

CITY           SKY/WX    TMP DP  RH WIND       PRES   REMARKS
AHOSKIE        MOSUNNY   81  64  55 NW5       29.76S
CLINTON        SUNNY     85  64  48 W7        29.82S
ELIZABETHTOWN  SUNNY     86  60  42 SW8       29.83S
GOLDSBORO      MOSUNNY   85  66  53 W7        29.79S
GREENVILLE     MOSUNNY   82  64  54 W7        29.81S
HAVELOCK       MOSUNNY   83  63  50 NW9       29.81S
KENANSVILLE    MOSUNNY   84  59  42 W6        29.82S
KINSTON        MOSUNNY   84  63  48 W8        29.81R
NEW BERN       MOSUNNY   85  64  49 W5        29.80F
RICHLANDS      MOSUNNY   82  63  51 W7        29.82R
ROANOKE RAPIDS NOT AVBL
ROCKY MOUNT    MOSUNNY   85  64  49 SW9       29.79S
WASHINGTON     SUNNY     81  64  55 NW6       29.78S
WHITEVILLE     SUNNY     84  62  46 SW6       29.84S

$$

AMZ130-135-150-152-154-156-158-170-250-252-270-ANZ085-086-088-633-658-670-212100-
MARINE OBSERVATIONS

STATION/POSITION TIME  TEMP    WIND        PRES    WAVE   SWELL
                       AIR SEA DIR/SP/G            HT/PER HT/PER
                 (UTC) (F)     (DEG/KT/KT) (MB)    (FT/S) (FT/S)
CHESAPEAKE LIGHT 1900   74     320/ 17/ 19 1006.9
BUOY 44014       2000   73 76  320/ 19/ 23 1004.6    7/ 9   5/ 9
DUCK             2000   76 74  320/  9/ 12 1006.1
2E DUCK          2000                        N/A     5/ 9   2/11
OREGON INLET     2000   76 74  290/ 10/ 15 1007.1
BUOY 44095       2000      74                N/A     7/ 8   2/11
20E OREGON INLET NOT AVBL
HATTERAS CG      NOT AVBL
DIAMOND BUOY     1900   77     310/ 17/ 21 1007.0    7/ 8   5/ 8
CAPE LOOKOUT     1900   78     300/ 11/ 13 1008.9
BEAUFORT LAB     2000   82 74  320/  6/ 12 1008.7
30 SE NEW RIVER  2000   79 83  300/ 14/ 17 1010.1    4/ 8   3/ 8
5 SE WRIGHTSVILL 1900   77 79  300/ 12/ 16   N/A
BUOY 41002       1919   80 81  270/ 17/ 23 1012.1   10/ 8
BUOY 41004       2000   80 82  250/ 10/ 12 1012.3    4/ 8   3/ 8

$$



USA.gov is the U.S. government's official web portal to all federal, state and local government web resources and services.